PGT305P LGAV-LTFJ

Flight info

Callsign PGT305P
Flight time 0h 59m
Altitude 33000
Route KRO UN604 INBET UY213 VUTZO
Aircraft A320/M-SDE3FGHIRWY/LB1

Departure

Time 2026-05-05 18:10
Airport Athens Eleftherios Venizelos International Airport (LGAV)

Arrival

Time 2026-05-05 19:09
Airport Istanbul Sabiha Gökçen International Airport (LTFJ)
Time Latitude Longitude Altitude Speed Heading
2026-05-05 17:43 37.93468 23.94690 303 ft 0 kts 307°
2026-05-05 17:47 37.93467 23.94690 303 ft 0 kts 307°
2026-05-05 18:02 37.93459 23.94705 302 ft 4 kts 307°
2026-05-05 18:02 37.93442 23.94733 302 ft 4 kts 306°
2026-05-05 18:02 37.93428 23.94761 301 ft 4 kts 285°
2026-05-05 18:02 37.93428 23.94791 303 ft 4 kts 237°
2026-05-05 18:03 37.93435 23.94802 301 ft 0 kts 217°
2026-05-05 18:05 37.93419 23.94786 302 ft 4 kts 219°
2026-05-05 18:05 37.93397 23.94764 301 ft 4 kts 217°
2026-05-05 18:05 37.93357 23.94727 301 ft 13 kts 216°
2026-05-05 18:05 37.93288 23.94663 304 ft 11 kts 217°
2026-05-05 18:06 37.93228 23.94606 304 ft 11 kts 207°
2026-05-05 18:06 37.93176 23.94594 301 ft 11 kts 183°
2026-05-05 18:06 37.93091 23.94611 301 ft 8 kts 124°
2026-05-05 18:06 37.93033 23.94683 300 ft 15 kts 173°
2026-05-05 18:07 37.92944 23.94612 302 ft 15 kts 216°
2026-05-05 18:07 37.92866 23.94537 301 ft 13 kts 216°
2026-05-05 18:07 37.92786 23.94462 304 ft 16 kts 217°
2026-05-05 18:07 37.92682 23.94364 304 ft 21 kts 217°
2026-05-05 18:08 37.92565 23.94284 304 ft 12 kts 162°
2026-05-05 18:08 37.92521 23.94350 306 ft 15 kts 129°
2026-05-05 18:08 37.92514 23.94479 309 ft 18 kts 35°
2026-05-05 18:08 37.92544 23.94508 307 ft 1 kts 39°
2026-05-05 18:09 37.92637 23.94598 306 ft 48 kts 37°
2026-05-05 18:09 37.93098 23.95033 298 ft 114 kts 37°
2026-05-05 18:09 37.93880 23.95772 286 ft 164 kts 36°
2026-05-05 18:09 37.94816 23.96660 832 ft 169 kts 37°
2026-05-05 18:10 37.95759 23.97580 1490 ft 173 kts 37°
2026-05-05 18:10 37.96720 23.98506 2144 ft 177 kts 37°
2026-05-05 18:10 37.97755 23.99504 2473 ft 198 kts 37°
2026-05-05 18:10 37.98916 24.00616 2736 ft 220 kts 36°
2026-05-05 18:11 38.00200 24.01850 3080 ft 242 kts 36°
2026-05-05 18:11 38.01555 24.03156 3894 ft 246 kts 36°
2026-05-05 18:11 38.02903 24.04456 4811 ft 247 kts 35°
2026-05-05 18:11 38.04293 24.05798 5666 ft 253 kts 36°
2026-05-05 18:12 38.05425 24.07578 6300 ft 270 kts 63°
2026-05-05 18:12 38.05931 24.09911 7127 ft 277 kts 75°
2026-05-05 18:12 38.06321 24.12308 7992 ft 279 kts 75°
2026-05-05 18:12 38.06706 24.14733 8856 ft 281 kts 75°
2026-05-05 18:13 38.07092 24.17177 9719 ft 284 kts 75°
2026-05-05 18:13 38.07482 24.19625 10341 ft 295 kts 75°
2026-05-05 18:13 38.07911 24.22273 10566 ft 318 kts 75°
2026-05-05 18:13 38.08376 24.25125 10840 ft 338 kts 75°
2026-05-05 18:14 38.08855 24.28086 11414 ft 346 kts 75°
2026-05-05 18:14 38.09335 24.31090 12099 ft 351 kts 75°
2026-05-05 18:14 38.09815 24.34142 12772 ft 355 kts 75°
2026-05-05 18:14 38.10305 24.37239 13480 ft 359 kts 75°
2026-05-05 18:15 38.10802 24.40358 14135 ft 364 kts 75°
2026-05-05 18:15 38.11307 24.43530 14715 ft 368 kts 75°
2026-05-05 18:15 38.11818 24.46735 15323 ft 372 kts 74°
2026-05-05 18:15 38.12333 24.49980 15907 ft 376 kts 75°
2026-05-05 18:16 38.12853 24.53266 16496 ft 381 kts 75°
2026-05-05 18:16 38.13357 24.56474 16974 ft 384 kts 74°
2026-05-05 18:16 38.13911 24.59796 17471 ft 384 kts 69°
2026-05-05 18:16 38.14996 24.62870 17990 ft 380 kts 52°
2026-05-05 18:17 38.16616 24.65511 18514 ft 380 kts 46°
2026-05-05 18:17 38.18284 24.68081 18986 ft 383 kts 46°
2026-05-05 18:17 38.19854 24.70491 19426 ft 386 kts 45°
2026-05-05 18:17 38.21559 24.73106 19908 ft 389 kts 45°
2026-05-05 18:18 38.23193 24.75616 20368 ft 392 kts 45°
2026-05-05 18:18 38.24849 24.78169 20822 ft 395 kts 45°
2026-05-05 18:18 38.26503 24.80721 21263 ft 398 kts 45°
2026-05-05 18:18 38.28165 24.83288 21691 ft 400 kts 45°
2026-05-05 18:19 38.29903 24.85974 22142 ft 403 kts 45°
2026-05-05 18:19 38.31663 24.88695 22581 ft 406 kts 44°
2026-05-05 18:19 38.33465 24.91482 23024 ft 409 kts 44°
2026-05-05 18:19 38.35275 24.94292 23461 ft 412 kts 44°
2026-05-05 18:20 38.37099 24.97123 23859 ft 415 kts 44°
2026-05-05 18:20 38.38317 24.99011 24124 ft 415 kts 44°
2026-05-05 18:20 38.40773 25.02820 24660 ft 418 kts 44°
2026-05-05 18:20 38.42620 25.05690 25022 ft 419 kts 44°
2026-05-05 18:21 38.44473 25.08578 25370 ft 421 kts 44°
2026-05-05 18:21 38.46329 25.11477 25733 ft 423 kts 44°
2026-05-05 18:21 38.47566 25.13414 25964 ft 425 kts 44°
2026-05-05 18:21 38.49441 25.16353 26309 ft 427 kts 43°
2026-05-05 18:22 38.51936 25.20263 26766 ft 430 kts 43°
2026-05-05 18:22 38.53830 25.23225 27117 ft 432 kts 43°
2026-05-05 18:22 38.55092 25.25195 27347 ft 433 kts 43°
2026-05-05 18:22 38.57003 25.28179 27687 ft 435 kts 43°
2026-05-05 18:23 38.58922 25.31181 28002 ft 437 kts 43°
2026-05-05 18:23 38.60850 25.34204 28330 ft 439 kts 43°
2026-05-05 18:23 38.62781 25.37243 28607 ft 441 kts 43°
2026-05-05 18:23 38.64719 25.40298 28894 ft 444 kts 43°
2026-05-05 18:24 38.66669 25.43371 29179 ft 446 kts 43°
2026-05-05 18:24 38.68633 25.46463 29475 ft 448 kts 44°
2026-05-05 18:24 38.70603 25.49566 29734 ft 450 kts 44°
2026-05-05 18:24 38.72581 25.52684 30006 ft 452 kts 44°
2026-05-05 18:25 38.74503 25.55720 30324 ft 452 kts 44°
2026-05-05 18:25 38.75808 25.57789 30548 ft 451 kts 44°
2026-05-05 18:25 38.78445 25.61974 31000 ft 450 kts 44°
2026-05-05 18:25 38.80407 25.65085 31343 ft 449 kts 44°
2026-05-05 18:26 38.82376 25.68204 31676 ft 448 kts 44°
2026-05-05 18:26 38.84338 25.71313 32024 ft 447 kts 44°
2026-05-05 18:26 38.86268 25.74377 32369 ft 446 kts 44°
2026-05-05 18:26 38.87277 25.75980 32543 ft 446 kts 44°
2026-05-05 18:27 38.89223 25.79073 32876 ft 445 kts 44°
2026-05-05 18:27 38.91166 25.82164 33035 ft 445 kts 44°
2026-05-05 18:27 38.93105 25.85257 33070 ft 444 kts 44°
2026-05-05 18:28 38.98894 25.94527 33083 ft 443 kts 44°
2026-05-05 18:28 39.02736 26.00685 33070 ft 440 kts 44°
2026-05-05 18:29 39.06567 26.06814 33069 ft 440 kts 44°
2026-05-05 18:29 39.10394 26.12959 33062 ft 440 kts 44°
2026-05-05 18:30 39.14208 26.19119 33077 ft 439 kts 45°
2026-05-05 18:30 39.18016 26.25275 33069 ft 439 kts 45°
2026-05-05 18:31 39.21824 26.31434 33080 ft 439 kts 45°
2026-05-05 18:31 39.25626 26.37592 33075 ft 439 kts 45°
2026-05-05 18:32 39.29399 26.43719 33081 ft 438 kts 45°
2026-05-05 18:32 39.33332 26.49695 33079 ft 431 kts 37°
2026-05-05 18:33 39.38069 26.54279 33076 ft 424 kts 28°
2026-05-05 18:33 39.42932 26.58615 33085 ft 425 kts 28°
2026-05-05 18:34 39.47781 26.62976 33069 ft 425 kts 29°
2026-05-05 18:34 39.52650 26.67363 33061 ft 426 kts 29°
2026-05-05 18:35 39.57525 26.71763 33053 ft 427 kts 29°
2026-05-05 18:35 39.62405 26.76165 33058 ft 427 kts 29°
2026-05-05 18:36 39.67261 26.80553 33055 ft 427 kts 29°
2026-05-05 18:36 39.72140 26.84974 33062 ft 428 kts 29°
2026-05-05 18:37 39.77023 26.89411 33081 ft 428 kts 30°
2026-05-05 18:37 39.81919 26.93850 33064 ft 429 kts 30°
2026-05-05 18:38 39.86822 26.98308 33059 ft 430 kts 30°
2026-05-05 18:38 39.91717 27.02785 33065 ft 430 kts 30°
2026-05-05 18:39 39.96614 27.07259 33078 ft 430 kts 30°
2026-05-05 18:39 40.01522 27.11749 33080 ft 430 kts 30°
2026-05-05 18:40 40.06420 27.16246 33082 ft 430 kts 30°
2026-05-05 18:40 40.08871 27.18500 32978 ft 432 kts 31°
2026-05-05 18:40 40.11301 27.20735 32721 ft 431 kts 31°
2026-05-05 18:41 40.13698 27.23097 32427 ft 434 kts 37°
2026-05-05 18:41 40.15805 27.25968 31438 ft 445 kts 48°
2026-05-05 18:41 40.17469 27.29418 30428 ft 451 kts 59°
2026-05-05 18:41 40.18595 27.33264 29366 ft 451 kts 71°
2026-05-05 18:42 40.19129 27.37241 28726 ft 440 kts 80°
2026-05-05 18:42 40.19403 27.41159 27991 ft 423 kts 75°
2026-05-05 18:42 40.20177 27.44772 27312 ft 409 kts 62°
2026-05-05 18:42 40.21515 27.48012 26956 ft 401 kts 50°
2026-05-05 18:43 40.23305 27.50777 26700 ft 396 kts 40°
2026-05-05 18:43 40.25448 27.52987 26241 ft 389 kts 28°
2026-05-05 18:43 40.27859 27.54510 25758 ft 381 kts 16°
2026-05-05 18:43 40.30355 27.55624 25272 ft 379 kts 20°
2026-05-05 18:44 40.32699 27.57219 24864 ft 379 kts 29°
2026-05-05 18:44 40.34864 27.59199 24440 ft 379 kts 34°
2026-05-05 18:44 40.36674 27.61101 24064 ft 377 kts 36°
2026-05-05 18:44 40.38581 27.63203 23653 ft 375 kts 37°
2026-05-05 18:45 40.40487 27.65282 23193 ft 373 kts 36°
2026-05-05 18:45 40.42294 27.67191 22831 ft 371 kts 35°
2026-05-05 18:45 40.43966 27.68905 22487 ft 369 kts 34°
2026-05-05 18:45 40.46026 27.70777 22069 ft 363 kts 26°
2026-05-05 18:46 40.47859 27.71906 21745 ft 359 kts 18°
2026-05-05 18:46 40.50189 27.73036 21334 ft 357 kts 18°
2026-05-05 18:46 40.52452 27.74154 20929 ft 354 kts 18°
2026-05-05 18:46 40.54150 27.75002 20620 ft 353 kts 18°
2026-05-05 18:47 40.56262 27.76067 20253 ft 351 kts 19°
2026-05-05 18:47 40.58386 27.77144 19877 ft 348 kts 19°
2026-05-05 18:47 40.59614 27.77766 19659 ft 347 kts 19°
2026-05-05 18:47 40.61840 27.78898 19396 ft 339 kts 19°
2026-05-05 18:48 40.63993 27.80033 19261 ft 328 kts 24°
2026-05-05 18:48 40.65758 27.81633 19147 ft 323 kts 40°
2026-05-05 18:48 40.66585 27.82854 19032 ft 322 kts 50°
2026-05-05 18:48 40.67260 27.84309 18874 ft 324 kts 60°
2026-05-05 18:49 40.67779 27.86198 18651 ft 328 kts 72°
2026-05-05 18:49 40.67981 27.88505 18365 ft 333 kts 84°
2026-05-05 18:49 40.67982 27.90920 18030 ft 332 kts 85°
2026-05-05 18:49 40.67976 27.93023 17760 ft 331 kts 85°
2026-05-05 18:50 40.67972 27.94364 17598 ft 330 kts 85°
2026-05-05 18:50 40.67963 27.96930 17269 ft 328 kts 85°
2026-05-05 18:50 40.67959 27.98302 16935 ft 328 kts 86°
2026-05-05 18:50 40.67954 27.99712 16987 ft 328 kts 86°
2026-05-05 18:51 40.67945 28.02147 16747 ft 324 kts 85°
2026-05-05 18:51 40.67938 28.03986 16479 ft 324 kts 85°
2026-05-05 18:51 40.67934 28.05210 16364 ft 323 kts 85°
2026-05-05 18:51 40.67931 28.06462 16216 ft 322 kts 85°
2026-05-05 18:52 40.67929 28.07523 16056 ft 323 kts 85°
2026-05-05 18:52 40.67927 28.08211 15980 ft 322 kts 85°
2026-05-05 18:52 40.67922 28.10239 15768 ft 320 kts 85°
2026-05-05 18:52 40.67918 28.12029 15542 ft 319 kts 85°
2026-05-05 18:53 40.67915 28.13501 15395 ft 317 kts 85°
2026-05-05 18:53 40.67911 28.15322 15138 ft 318 kts 85°
2026-05-05 18:53 40.67908 28.16498 15035 ft 316 kts 85°
2026-05-05 18:53 40.67906 28.17896 14844 ft 316 kts 85°
2026-05-05 18:54 40.67904 28.19109 14712 ft 315 kts 85°
2026-05-05 18:54 40.67901 28.21208 14489 ft 314 kts 85°
2026-05-05 18:54 40.67895 28.23315 14246 ft 313 kts 85°
2026-05-05 18:54 40.67888 28.24928 14053 ft 309 kts 85°
2026-05-05 18:55 40.67880 28.26471 13764 ft 307 kts 85°
2026-05-05 18:55 40.67868 28.29272 13378 ft 306 kts 85°
2026-05-05 18:55 40.67855 28.32074 13036 ft 304 kts 85°
2026-05-05 18:55 40.67822 28.34854 12629 ft 304 kts 86°
2026-05-05 18:56 40.67766 28.37639 12257 ft 304 kts 86°
2026-05-05 18:56 40.67699 28.40418 11839 ft 305 kts 86°
2026-05-05 18:56 40.67631 28.43099 11575 ft 299 kts 86°
2026-05-05 18:56 40.67567 28.45631 11038 ft 296 kts 86°
2026-05-05 18:57 40.67505 28.48346 10617 ft 297 kts 86°
2026-05-05 18:57 40.67446 28.51059 10284 ft 295 kts 86°
2026-05-05 18:57 40.67388 28.53762 9903 ft 294 kts 86°
2026-05-05 18:57 40.67325 28.56424 9438 ft 288 kts 86°
2026-05-05 18:58 40.67262 28.59055 9155 ft 284 kts 86°
2026-05-05 18:58 40.67201 28.61609 9011 ft 273 kts 85°
2026-05-05 18:58 40.67239 28.64055 8858 ft 258 kts 74°
2026-05-05 18:58 40.67685 28.66296 8678 ft 251 kts 64°
2026-05-05 18:59 40.68258 28.68434 8402 ft 252 kts 65°
2026-05-05 18:59 40.68843 28.70606 8089 ft 251 kts 65°
2026-05-05 18:59 40.69431 28.72803 7761 ft 250 kts 65°
2026-05-05 18:59 40.70010 28.74973 7450 ft 250 kts 65°
2026-05-05 19:00 40.70575 28.77094 7146 ft 248 kts 65°
2026-05-05 19:00 40.71151 28.79263 6829 ft 247 kts 65°
2026-05-05 19:00 40.71711 28.81366 6531 ft 246 kts 65°
2026-05-05 19:00 40.72276 28.83491 6203 ft 245 kts 65°
2026-05-05 19:01 40.72836 28.85604 5903 ft 243 kts 65°
2026-05-05 19:01 40.73392 28.87706 5598 ft 242 kts 66°
2026-05-05 19:01 40.73944 28.89798 5298 ft 241 kts 66°
2026-05-05 19:01 40.74495 28.91884 4991 ft 240 kts 66°
2026-05-05 19:02 40.75042 28.93961 4690 ft 239 kts 66°
2026-05-05 19:02 40.75587 28.96029 4395 ft 238 kts 68°
2026-05-05 19:02 40.76126 28.98079 4223 ft 232 kts 68°
2026-05-05 19:02 40.76638 29.00028 4141 ft 223 kts 68°
2026-05-05 19:03 40.77209 29.01874 4042 ft 211 kts 57°
2026-05-05 19:03 40.78001 29.03527 3642 ft 217 kts 54°
2026-05-05 19:03 40.78827 29.05229 3249 ft 223 kts 54°
2026-05-05 19:03 40.79663 29.06954 2997 ft 220 kts 55°
2026-05-05 19:04 40.80456 29.08604 3000 ft 206 kts 57°
2026-05-05 19:04 40.81072 29.10230 3031 ft 188 kts 61°
2026-05-05 19:04 40.81612 29.11699 3008 ft 169 kts 60°
2026-05-05 19:04 40.82106 29.13027 2994 ft 156 kts 60°
2026-05-05 19:05 40.82578 29.14296 2898 ft 152 kts 60°
2026-05-05 19:05 40.83043 29.15546 2735 ft 151 kts 60°
2026-05-05 19:05 40.83503 29.16785 2548 ft 150 kts 60°
2026-05-05 19:05 40.83962 29.18022 2362 ft 150 kts 61°
2026-05-05 19:06 40.84419 29.19257 2148 ft 149 kts 61°
2026-05-05 19:06 40.84875 29.20487 1941 ft 149 kts 62°
2026-05-05 19:06 40.85329 29.21714 1744 ft 149 kts 62°
2026-05-05 19:06 40.85781 29.22936 1539 ft 148 kts 62°
2026-05-05 19:07 40.86227 29.24143 1338 ft 147 kts 62°
2026-05-05 19:07 40.86525 29.24951 1202 ft 147 kts 63°
2026-05-05 19:07 40.87124 29.26573 937 ft 146 kts 63°
2026-05-05 19:07 40.87570 29.27762 724 ft 143 kts 63°
2026-05-05 19:08 40.88001 29.28939 532 ft 141 kts 64°
2026-05-05 19:08 40.88427 29.30101 352 ft 140 kts 63°
2026-05-05 19:08 40.88834 29.31205 298 ft 121 kts 64°
2026-05-05 19:08 40.89128 29.32003 301 ft 71 kts 64°
2026-05-05 19:09 40.89306 29.32375 303 ft 35 kts 34°
2026-05-05 19:09 40.89385 29.32442 303 ft 2 kts 34°
2026-05-05 19:09 40.89398 29.32455 303 ft 5 kts 37°
2026-05-05 19:09 40.89459 29.32505 302 ft 14 kts 10°
2026-05-05 19:10 40.89493 29.32400 303 ft 15 kts 276°
2026-05-05 19:10 40.89574 29.32350 304 ft 14 kts 349°
2026-05-05 19:10 40.89636 29.32320 302 ft 15 kts 334°
2026-05-05 19:10 40.89765 29.32238 305 ft 15 kts 336°
2026-05-05 19:11 40.89858 29.32177 309 ft 14 kts 334°
2026-05-05 19:11 40.89946 29.32121 311 ft 16 kts 334°
2026-05-05 19:11 40.90060 29.32048 311 ft 14 kts 345°
2026-05-05 19:11 40.90106 29.32101 311 ft 14 kts 65°
2026-05-05 19:12 40.90159 29.32245 311 ft 20 kts 64°
2026-05-05 19:12 40.90224 29.32420 310 ft 22 kts 64°
2026-05-05 19:12 40.90292 29.32586 309 ft 16 kts 38°
2026-05-05 19:12 40.90369 29.32557 311 ft 15 kts 331°
2026-05-05 19:13 40.90491 29.32479 312 ft 22 kts 335°
2026-05-05 19:13 40.90589 29.32352 311 ft 20 kts 254°
2026-05-05 19:13 40.90532 29.32188 311 ft 19 kts 244°
2026-05-05 19:13 40.90477 29.32038 310 ft 17 kts 244°
2026-05-05 19:14 40.90420 29.31887 311 ft 23 kts 242°
2026-05-05 19:14 40.90348 29.31687 311 ft 25 kts 244°
2026-05-05 19:14 40.90303 29.31517 311 ft 15 kts 293°
2026-05-05 19:14 40.90389 29.31451 311 ft 15 kts 334°
2026-05-05 19:15 40.90469 29.31381 311 ft 10 kts 334°
2026-05-05 19:15 40.90504 29.31359 311 ft 3 kts 334°
2026-05-05 19:15 40.90508 29.31356 311 ft 0 kts 334°